Janesville, WI

11:40 AM CST on December 11, 2017 (GMT -0600)
Rock County

Weather History for KJVL - February, 2014

Change the Weather History Date:

Thursday, February 20, 2014

  Actual Average Record
Temperature  
Mean Temperature 38 °F -  
Max Temperature 44 °F 33 °F 66 °F (2017)
Min Temperature 32 °F 19 °F -4 °F (2015)
Degree Days  
Heating Degree Days 27    
Moisture  
Dew Point 32 °F    
Average Humidity 88    
Maximum Humidity 100    
Minimum Humidity 75    
Precipitation  
Precipitation 0.24 in - - ()
Sea Level Pressure  
Sea Level Pressure 29.57 in    
Wind  
Wind Speed 12 mph (SSE)    
Max Wind Speed 43 mph    
Max Gust Speed 46 mph    
Visibility 7 miles    
Events Rain , Snow    
Averages and records for this station are not official NWS values.
T = Trace of Precipitation, MM = Missing Value Source: NWS Daily Summary

Daily Weather History Graph

Daily Weather History Graph

Search for Another Location

Airport or City:

Trip Planner

Search our weather history database for the weather conditions in past years. The results will help you decide how hot, cold, wet, or windy it might be!

Date:

Astronomy

Feb. 20, 2014 Rise Set
Actual Time 6:45 AM CST 5:34 PM CST
Civil Twilight 6:17 AM CST 6:03 PM CST
Nautical Twilight 5:44 AM CST 6:36 PM CST
Astronomical Twilight 5:11 AM CST 7:08 PM CST
Moon 11:37 PM CST (2/20) 9:20 AM CST (2/20)
Length of Visible Light 11h 46m
Length of Day
10h 48m
Waning Gibbous, 70% of the Moon is Illuminated
Feb 20
Waning Gibbous
Feb 22
Last Quarter
Mar 1
New
Mar 8
First Quarter
Mar 16
Full

Hourly Weather History & Observations

Time (CST) Temp. Windchill Dew Point Humidity Pressure Visibility Wind Dir Wind Speed Gust Speed Precip Events Conditions
12:11 AM 33.8 °F 27.7 °F 26.6 °F 75% 29.88 in 10.0 mi SE 6.9 mph - N/A   Scattered Clouds
12:15 AM 32.0 °F 25.6 °F 28.4 °F 87% 29.88 in 10.0 mi SE 6.9 mph - N/A   Scattered Clouds
12:26 AM 33.8 °F 27.7 °F 28.4 °F 81% 29.87 in 10.0 mi SE 6.9 mph - N/A   Mostly Cloudy
12:35 AM 32.0 °F 25.6 °F 28.4 °F 87% 29.87 in 10.0 mi SE 6.9 mph - N/A   Mostly Cloudy
12:46 AM 33.8 °F 28.6 °F 28.4 °F 81% 29.88 in 10.0 mi SE 5.8 mph - N/A   Overcast
12:55 AM 32.0 °F 25.6 °F 28.4 °F 87% 29.87 in 10.0 mi SE 6.9 mph - N/A   Overcast
1:09 AM 33.8 °F 28.6 °F 28.4 °F 81% 29.87 in 10.0 mi SE 5.8 mph - N/A   Overcast
1:15 AM 32.0 °F 25.6 °F 28.4 °F 87% 29.86 in 7.0 mi SE 6.9 mph - N/A   Overcast
1:32 AM 33.8 °F 27.7 °F 28.4 °F 81% 29.84 in 10.0 mi SE 6.9 mph - N/A   Overcast
1:35 AM 33.8 °F 27.7 °F 30.2 °F 87% 29.84 in 10.0 mi SE 6.9 mph - N/A   Overcast
1:44 AM 33.8 °F 27.0 °F 28.4 °F 81% 29.83 in 10.0 mi SE 8.1 mph - N/A   Mostly Cloudy
1:55 AM 33.8 °F 26.4 °F 30.2 °F 87% 29.82 in 10.0 mi SE 9.2 mph - N/A   Overcast
2:15 AM 33.8 °F 28.6 °F 30.2 °F 87% 29.80 in 7.0 mi SE 5.8 mph - N/A   Overcast
2:25 AM 35.6 °F 29.2 °F 28.4 °F 75% 29.79 in 10.0 mi SE 8.1 mph - N/A   Overcast
2:35 AM 33.8 °F 27.0 °F 30.2 °F 87% 29.79 in 7.0 mi SE 8.1 mph - N/A   Overcast
2:55 AM 35.6 °F 28.6 °F 30.2 °F 81% 29.80 in 5.0 mi SSE 9.2 mph - N/A Rain Light Rain
3:08 AM 35.6 °F 27.1 °F 30.2 °F 81% 29.80 in 5.0 mi SSE 12.7 mph - 0.01 in Rain Light Rain
3:15 AM 35.6 °F 27.5 °F 32.0 °F 87% 29.79 in 4.0 mi SSE 11.5 mph - 0.02 in Rain Light Rain
3:32 AM 35.6 °F 27.5 °F 32.0 °F 87% 29.78 in 4.0 mi SE 11.5 mph - 0.05 in Rain Light Rain
3:35 AM 35.6 °F 28.0 °F 32.0 °F 87% 29.78 in 4.0 mi SE 10.4 mph - 0.05 in Rain Light Rain
3:46 AM 35.6 °F 28.0 °F 32.0 °F 87% 29.77 in 5.0 mi SE 10.4 mph - 0.06 in Rain Light Rain
3:55 AM 35.6 °F 28.0 °F 32.0 °F 87% 29.76 in 4.0 mi SE 10.4 mph - 0.07 in Rain Light Rain
4:15 AM 35.6 °F 28.0 °F 32.0 °F 87% 29.75 in 4.0 mi SE 10.4 mph - 0.01 in Rain Rain
4:32 AM 35.6 °F 28.6 °F 32.0 °F 87% 29.75 in 3.0 mi SE 9.2 mph - 0.05 in Rain Rain
4:35 AM 35.6 °F 28.6 °F 32.0 °F 87% 29.75 in 3.0 mi SE 9.2 mph - 0.05 in Rain Light Rain
4:53 AM 35.6 °F 28.6 °F 33.8 °F 93% 29.74 in 3.0 mi SE 9.2 mph - 0.09 in Rain Rain
5:12 AM 35.6 °F 27.5 °F 33.8 °F 93% 29.74 in 3.0 mi SE 11.5 mph - 0.04 in Rain Rain
5:32 AM 35.6 °F 27.5 °F 32.0 °F 87% 29.74 in 4.0 mi SE 11.5 mph - 0.08 in Rain Rain
5:45 AM 33.8 °F 26.4 °F 32.0 °F 93% 29.73 in 2.0 mi East 9.2 mph - N/A Snow Light Snow
6:45 AM 33.8 °F 26.4 °F 32.0 °F 93% 29.69 in 3.0 mi East 9.2 mph - N/A Rain Light Rain
7:45 AM 35.6 °F 26.2 °F 33.8 °F 93% 29.68 in 7.0 mi East 15.0 mph - N/A   Overcast
8:45 AM 35.6 °F 25.2 °F 33.8 °F 93% 29.59 in 7.0 mi East 18.4 mph - N/A   Overcast
9:45 AM 35.6 °F 25.5 °F 33.8 °F 93% 29.59 in 5.0 mi East 17.3 mph - N/A   Overcast
10:45 AM 35.6 °F 25.5 °F 33.8 °F 93% 29.56 in 2.5 mi East 17.3 mph 23.0 mph N/A   Overcast
11:45 AM 35.6 °F 25.9 °F 33.8 °F 93% 29.55 in 2.0 mi East 16.1 mph 21.9 mph N/A Rain Rain
12:45 PM 35.6 °F 25.5 °F 33.8 °F 93% 29.42 in 2.5 mi East 17.3 mph 23.0 mph N/A Rain Light Rain
1:45 PM 35.6 °F 25.5 °F 33.8 °F 93% 29.37 in 4.0 mi East 17.3 mph 23.0 mph N/A   Overcast
2:45 PM 35.6 °F 25.2 °F 33.8 °F 93% 29.30 in 5.0 mi East 18.4 mph 24.2 mph N/A   Overcast
3:45 PM 35.6 °F 24.8 °F 35.6 °F 100% 29.24 in 1.5 mi ESE 19.6 mph - N/A Rain Light Rain
4:45 PM 37.4 °F 29.8 °F 35.6 °F 93% 29.19 in 1.2 mi SE 11.5 mph 23.0 mph N/A Rain Light Rain
6:45 PM 44.6 °F 34.9 °F 42.8 °F 93% 29.12 in 10.0 mi South 28.8 mph 41.4 mph N/A   Overcast
7:45 PM 37.4 °F 23.0 °F 35.6 °F 93% 29.15 in 7.0 mi SW 42.6 mph 46.0 mph N/A   Overcast
8:15 PM 35.6 °F 21.9 °F 33.8 °F 93% 29.17 in 10.0 mi SSW 33.4 mph 46.0 mph N/A   Overcast
8:35 PM 33.8 °F 20.1 °F 32.0 °F 93% 29.17 in 10.0 mi SW 29.9 mph 43.7 mph N/A   Overcast
8:45 PM 35.6 °F 22.3 °F 33.8 °F 93% 29.17 in 10.0 mi SW 31.1 mph 43.7 mph N/A   Overcast
8:55 PM 33.8 °F 20.5 °F 32.0 °F 93% 29.17 in 10.0 mi SW 27.6 mph 32.2 mph N/A   Overcast
9:15 PM 33.8 °F 21.0 °F 32.0 °F 93% 29.18 in 10.0 mi SW 25.3 mph 39.1 mph N/A   Overcast
9:35 PM 33.8 °F 21.3 °F 32.0 °F 93% 29.19 in 10.0 mi SW 24.2 mph 35.7 mph N/A   Overcast
9:55 PM 33.8 °F 21.6 °F 32.0 °F 93% 29.20 in 10.0 mi SW 23.0 mph 34.5 mph N/A   Overcast
10:15 PM 35.6 °F 23.7 °F 33.8 °F 93% 29.21 in 10.0 mi WSW 24.2 mph 33.4 mph N/A   Overcast
10:35 PM 35.6 °F 24.0 °F 32.0 °F 87% 29.21 in 10.0 mi WSW 23.0 mph 34.5 mph N/A   Overcast
10:55 PM 35.6 °F 24.5 °F 32.0 °F 87% 29.21 in 10.0 mi WSW 20.7 mph 36.8 mph N/A   Overcast
11:15 PM 35.6 °F 24.2 °F 30.2 °F 81% 29.22 in 10.0 mi SW 21.9 mph 31.1 mph N/A   Overcast
11:35 PM 35.6 °F 24.0 °F 30.2 °F 81% 29.23 in 10.0 mi WSW 23.0 mph 36.8 mph N/A   Overcast
11:55 PM 35.6 °F 23.7 °F 30.2 °F 81% 29.24 in 10.0 mi WSW 24.2 mph 33.4 mph N/A   Overcast